Weather in Genoa

Italy     44˚24′27″N   8˚56′58″E
temp.,
°C
wind,
m/s
gust,
m/s
humid.,
%
clouds,
%
prec.,
mm/h
press.,
hPa
HPBL,
m
1 december, tue
tue101:00+2˚n348927 0.0 1020122
04:00+1˚n33883 0.0 101995
07:00+1˚n338813 0.0 101790
10:00+5˚n2277100 0.0 1016135
13:00+7˚nw127298 0.0 1013370
16:00+4˚nnw359099 0.4 1011246
19:00+2˚n3696100 2.3 1011272
22:00+1˚nnw4895100 5.4 1011436
2 december, wed
wed201:00+1˚n5995100 10.8 1011431
04:00n468779 1.9 1010257
07:00nnw489290 2.2 1009526
10:00+1˚n4988100 0.6 1009676
13:00+3˚n4786100 0.8 1009593
16:00+2˚nnw3591100 0.0 1009315
19:00n469293 0.0 1010237
22:00n469279 0.0 1010223
3 december, thu
thu301:00+2˚n369483 0.0 1008345
04:00+1˚nne239598 0.0 100794
07:00+1˚ene128888 0.0 100622
10:00+4˚se128747 0.0 1006151
13:00+6˚sse238535 0.0 1005627
16:00+5˚se129366 0.2 100597
19:00+4˚e129466 0.4 100646
22:00+4˚ne1196100 0.6 100658
4 december, fri
fri401:00+4˚sse1298100 7.4 1004174
04:00+5˚s1498100 4.3 1002275
07:00+5˚sse2496100 5.8 1000265
10:00+5˚se3899100 12.8 998511
13:00+6˚s41098100 22.1 995676
16:00+5˚sse1498100 3.5 994323
19:00+5˚s2499100 5.0 993250
22:00+5˚ese2398100 6.4 993171
5 december, sat
sat501:00+5˚ese2396100 7.8 992125
04:00+4˚n2296100 1.4 990109
07:00+1˚n4694100 15.4 989258
10:00+2˚nw1196100 0.7 99087
13:00+4˚se2496100 0.8 992339
16:00+4˚se2495100 0.4 993269
19:00+4˚se1291100 0.5 99537
22:00+3˚ne129292 0.1 99754